This demonstration page uses our WeatherBlox Daily Observations layout. Learn more.

Left ArrowRight Arrow

39.12711, -84.51439

Hourly Observations for September 27, 2022

Temp ( °F °C ) Dew Point ( °F °C ) Humidity (%) Winds ( mph kmh ) Pressure ( in mb ) Visibility ( mi km ) Precip ( " mm )
12:53 am 00:53 Mostly Clear 53 11.7 43 6.1 68 68 WSW 6 9 29.96 1015 10 16 0.00 0.00
1:53 am 01:53 Partly Cloudy 54 12.2 43 6.1 66 66 W 6 9 29.97 1015 10 16 0.00 0.00
2:53 am 02:53 Clear 48 8.9 46 7.8 93 93 Calm 29.98 1015 10 16 0.00 0.00
3:53 am 03:53 Mostly Clear 47 8.3 45 7.2 93 93 ENE 3 6 29.96 1015 10 16 0.00 0.00
4:53 am 04:53 Clear 46 7.8 44 6.7 93 93 Calm 29.97 1015 10 16 0.00 0.00
5:53 am 05:53 Mostly Cloudy 46 7.8 45 7.2 96 96 Calm 29.97 1015 10 16 0.00 0.00
6:53 am 06:53 Mostly Clear 46 7.8 44 6.7 93 93 Calm 29.99 1016 10 16 0.00 0.00
7:53 am 07:53 Sunny 45 7.2 44 6.7 97 97 Calm 30.01 1016 10 16 0.00 0.00
8:53 am 08:53 Sunny 51 10.6 45 7.2 79 79 SSW 5 7 30.02 1017 10 16 0.00 0.00
9:53 am 09:53 Sunny 56 13.3 44 6.7 64 64 W 6 9 30.03 1017 10 16 0.00 0.00
10:53 am 10:53 Mostly Sunny 61 16.1 43 6.1 51 51 W 10 17 30.04 1017 10 16 0.00 0.00
11:53 am 11:53 Mostly Cloudy 61 16.1 40 4.4 46 46 W 17 28 30.05 1018 10 16 0.00 0.00
12:53 pm 12:53 Mostly Cloudy 63 17.2 39 3.9 41 41 NW 13 20 30.06 1018 10 16 0.00 0.00
1:53 pm 13:53 Partly Cloudy 63 17.2 37 2.8 38 38 NW 15 24 30.07 1018 10 16 0.00 0.00
2:53 pm 14:53 Partly Cloudy 65 18.3 37 2.8 36 36 NW 10 17 30.06 1018 10 16 0.00 0.00
3:53 pm 15:53 Mostly Cloudy 65 18.3 36 2.2 34 34 W 15 24 30.06 1018 10 16 0.00 0.00
4:53 pm 16:53 Mostly Cloudy 65 18.3 35 1.7 33 33 NW 9 15 30.08 1019 10 16 0.00 0.00
5:53 pm 17:53 Mostly Cloudy 63 17.2 33 0.6 33 33 NW 7 11 30.09 1019 10 16 0.00 0.00
6:33 pm 18:33 Mostly Cloudy 62 16.7 35 1.7 36 36 NNW 16 26 30.10 1019 10 16 0.00 0.00
6:53 pm 18:53 Mostly Cloudy 62 16.7 34 1.1 35 35 NW 9 15 30.11 1020 10 16 0.00 0.00
7:53 pm 19:53 Mostly Clear 59 15 34 1.1 39 39 NNW 8 13 30.13 1020 10 16 0.00 0.00
8:53 pm 20:53 Clear 54 12.2 38 3.3 54 54 NNW 5 7 30.16 1021 10 16 0.00 0.00
9:53 pm 21:53 Clear 53 11.7 37 2.8 54 54 N 8 13 30.18 1022 10 16 0.00 0.00
10:53 pm 22:53 Clear 53 11.7 36 2.2 52 52 N 9 15 30.20 1023 10 16 0.00 0.00
11:53 pm 23:53 Clear 50 10 36 2.2 58 58 N 6 9 30.23 1024 10 16 0.00 0.00

Powered by AerisWeather